When you browse on this site, cookies collect data to enhance your experience and personalize the content and advertising you see.
Visit our Privacy Policy to learn more. By continuing to use the site, you agree to this use of cookies and data.
  • In Lithuania
  • List of Countries
  • For 7 days
  • Water Temperature
  • Weather Map
  • Weather Widgets
  • user-avatar
    Login

    Hourly Weather Punta Cana

    Today, 20 February, Thursday

    Time Temperature Precipitation Wind Pressure Humidity
    00:00 +24°C° 0.1 mm 7 mps 763 mmHg 87%
    01:00 +24°C° 0.1 mm 6 mps 763 mmHg 87%
    02:00 +24°C° 0.1 mm 6 mps 763 mmHg 86%
    03:00 +24°C° 0.1 mm 6 mps 763 mmHg 86%
    04:00 +24°C° 0.1 mm 6 mps 762 mmHg 86%
    05:00 +24°C° 0.2 mm 6 mps 763 mmHg 86%
    06:00 +24°C° 0.2 mm 7 mps 763 mmHg 85%
    07:00 +26°C° 0.2 mm 7 mps 764 mmHg 85%
    08:00 +27°C° 0 mm 7 mps 764 mmHg 80%
    09:00 +28°C° 0 mm 7 mps 764 mmHg 75%
    10:00 +29°C° 0 mm 7 mps 765 mmHg 69%
    11:00 +29°C° 0 mm 6 mps 764 mmHg 68%
    12:00 +30°C° 0 mm 5 mps 763 mmHg 66%
    13:00 +30°C° 0 mm 4 mps 762 mmHg 64%
    14:00 +29°C° 0.1 mm 4 mps 762 mmHg 66%
    15:00 +29°C° 0.1 mm 4 mps 762 mmHg 68%
    16:00 +28°C° 0.1 mm 4 mps 762 mmHg 70%
    17:00 +27°C° 0.1 mm 4 mps 762 mmHg 75%
    18:00 +26°C° 0.1 mm 4 mps 762 mmHg 80%
    19:00 +25°C° 0.1 mm 4 mps 763 mmHg 85%
    20:00 +25°C° 0 mm 4 mps 763 mmHg 85%
    21:00 +25°C° 0 mm 4 mps 763 mmHg 85%
    22:00 +25°C° 0 mm 4 mps 763 mmHg 84%
    23:00 +23°C° 0 mm 4 mps 763 mmHg 84%

    Tomorrow, 21 February, Friday

    Time Temperature Precipitation Wind Pressure Humidity
    00:00 +23°C° 0 mm 4 mps 763 mmHg 84%
    01:00 +23°C° 0 mm 4 mps 762 mmHg 84%
    08:00 +27°C° 0 mm 3 mps 763 mmHg 76%
    09:00 +28°C° 0 mm 3 mps 764 mmHg 69%
    10:00 +29°C° 0 mm 3 mps 764 mmHg 63%
    11:00 +30°C° 0 mm 3 mps 763 mmHg 62%
    12:00 +30°C° 0 mm 3 mps 763 mmHg 62%
    13:00 +30°C° 0 mm 3 mps 762 mmHg 62%
    14:00 +29°C° 0.1 mm 3 mps 762 mmHg 66%
    15:00 +28°C° 0.1 mm 3 mps 761 mmHg 70%
    16:00 +27°C° 0.1 mm 3 mps 761 mmHg 74%
    17:00 +27°C° 0.1 mm 3 mps 761 mmHg 78%
    18:00 +26°C° 0.1 mm 3 mps 761 mmHg 82%
    19:00 +25°C° 0.1 mm 3 mps 761 mmHg 86%
    20:00 +25°C° 0 mm 3 mps 762 mmHg 87%
    21:00 +24°C° 0 mm 3 mps 762 mmHg 87%
    22:00 +24°C° 0 mm 3 mps 762 mmHg 88%
    23:00 +24°C° 0 mm 3 mps 762 mmHg 88%

    Day after tomorrow, 22 February, Saturday

    Time Temperature Precipitation Wind Pressure Humidity
    00:00 +24°C° 0 mm 3 mps 761 mmHg 87%
    01:00 +24°C° 0 mm 3 mps 761 mmHg 87%
    02:00 +24°C° 0 mm 3 mps 761 mmHg 88%
    03:00 +22°C° 0 mm 3 mps 761 mmHg 88%
    04:00 +22°C° 0 mm 3 mps 760 mmHg 89%
    05:00 +24°C° 0 mm 3 mps 761 mmHg 87%
    06:00 +25°C° 0 mm 3 mps 761 mmHg 85%
    07:00 +25°C° 0 mm 3 mps 762 mmHg 83%
    08:00 +27°C° 0 mm 3 mps 762 mmHg 76%
    09:00 +28°C° 0 mm 3 mps 763 mmHg 69%
    10:00 +29°C° 0 mm 4 mps 763 mmHg 62%
    11:00 +30°C° 0 mm 4 mps 762 mmHg 61%
    12:00 +30°C° 0 mm 4 mps 762 mmHg 60%
    13:00 +30°C° 0 mm 4 mps 761 mmHg 59%
    14:00 +30°C° 0 mm 3 mps 761 mmHg 60%
    15:00 +30°C° 0 mm 3 mps 760 mmHg 61%
    16:00 +29°C° 0 mm 3 mps 760 mmHg 62%
    17:00 +28°C° 0 mm 3 mps 760 mmHg 67%
    18:00 +26°C° 0 mm 3 mps 761 mmHg 72%
    19:00 +24°C° 0 mm 2 mps 761 mmHg 77%
    20:00 +24°C° 0 mm 2 mps 761 mmHg 78%
    21:00 +24°C° 0 mm 2 mps 761 mmHg 79%
    22:00 +23°C° 0 mm 2 mps 762 mmHg 79%
    23:00 +23°C° 0 mm 2 mps 761 mmHg 79%

    23 February, Sunday

    Time Temperature Precipitation Wind Pressure Humidity
    00:00 +23°C° 0 mm 2 mps 761 mmHg 79%
    01:00 +23°C° 0 mm 2 mps 761 mmHg 79%
    02:00 +23°C° 0 mm 2 mps 760 mmHg 80%
    03:00 +23°C° 0 mm 2 mps 760 mmHg 81%
    04:00 +23°C° 0 mm 2 mps 760 mmHg 82%
    05:00 +23°C° 0 mm 2 mps 761 mmHg 81%
    06:00 +24°C° 0 mm 2 mps 761 mmHg 81%
    07:00 +24°C° 0 mm 2 mps 762 mmHg 80%
    08:00 +26°C° 0 mm 2 mps 762 mmHg 72%
    09:00 +28°C° 0 mm 2 mps 762 mmHg 64%
    10:00 +30°C° 0 mm 2 mps 763 mmHg 56%
    11:00 +30°C° 0 mm 2 mps 762 mmHg 55%
    12:00 +30°C° 0 mm 3 mps 761 mmHg 54%
    13:00 +31°C° 0 mm 3 mps 761 mmHg 53%
    14:00 +30°C° 0.2 mm 2 mps 761 mmHg 58%
    15:00 +29°C° 0.2 mm 2 mps 760 mmHg 62%
    16:00 +28°C° 0.2 mm 2 mps 760 mmHg 66%
    17:00 +27°C° 0 mm 2 mps 761 mmHg 72%
    18:00 +26°C° 0 mm 2 mps 761 mmHg 77%
    19:00 +25°C° 0 mm 2 mps 761 mmHg 83%
    20:00 +25°C° 0.2 mm 2 mps 761 mmHg 84%
    21:00 +24°C° 0.2 mm 3 mps 762 mmHg 86%
    22:00 +24°C° 0.2 mm 3 mps 762 mmHg 88%
    23:00 +24°C° 0.7 mm 3 mps 762 mmHg 88%

    24 February, Monday

    Time Temperature Precipitation Wind Pressure Humidity
    00:00 +23°C° 0.7 mm 4 mps 762 mmHg 88%
    01:00 +23°C° 0.7 mm 4 mps 761 mmHg 88%
    02:00 +23°C° 1.1 mm 5 mps 761 mmHg 88%
    03:00 +23°C° 1.1 mm 5 mps 761 mmHg 88%
    04:00 +23°C° 1.1 mm 6 mps 761 mmHg 88%
    05:00 +24°C° 0.6 mm 6 mps 762 mmHg 88%
    06:00 +24°C° 0.6 mm 7 mps 762 mmHg 87%
    07:00 +24°C° 0.6 mm 7 mps 762 mmHg 87%
    08:00 +26°C° 0.9 mm 7 mps 763 mmHg 85%
    09:00 +26°C° 0.9 mm 7 mps 763 mmHg 82%
    10:00 +27°C° 0.9 mm 7 mps 764 mmHg 80%
    11:00 +27°C° 1 mm 7 mps 763 mmHg 80%
    12:00 +27°C° 1 mm 7 mps 763 mmHg 81%
    13:00 +27°C° 1 mm 7 mps 762 mmHg 82%
    14:00 +26°C° 1 mm 7 mps 762 mmHg 83%
    15:00 +26°C° 1 mm 7 mps 762 mmHg 84%
    16:00 +26°C° 1 mm 7 mps 762 mmHg 85%
    17:00 +24°C° 0.4 mm 7 mps 762 mmHg 86%
    18:00 +24°C° 0.4 mm 7 mps 762 mmHg 88%
    19:00 +23°C° 0.4 mm 7 mps 762 mmHg 89%
    20:00 +23°C° 0.1 mm 7 mps 763 mmHg 88%
    21:00 +23°C° 0.1 mm 7 mps 763 mmHg 88%
    22:00 +23°C° 0.1 mm 7 mps 763 mmHg 88%
    23:00 +23°C° 0.1 mm 7 mps 763 mmHg 87%

    25 February, Tuesday

    Time Temperature Precipitation Wind Pressure Humidity
    00:00 +23°C° 0.1 mm 7 mps 763 mmHg 86%
    01:00 +23°C° 0.1 mm 7 mps 763 mmHg 85%
    02:00 +23°C° 0.1 mm 7 mps 762 mmHg 85%
    03:00 +23°C° 0.1 mm 7 mps 762 mmHg 85%
    04:00 +23°C° 0.1 mm 7 mps 762 mmHg 85%
    05:00 +23°C° 0.2 mm 7 mps 763 mmHg 85%
    06:00 +24°C° 0.2 mm 7 mps 763 mmHg 84%
    07:00 +24°C° 0.2 mm 7 mps 763 mmHg 84%
    08:00 +26°C° 0.2 mm 7 mps 764 mmHg 81%
    09:00 +27°C° 0.2 mm 7 mps 764 mmHg 77%
    10:00 +28°C° 0.2 mm 7 mps 764 mmHg 74%
    11:00 +28°C° 0.4 mm 7 mps 764 mmHg 76%
    12:00 +28°C° 0.4 mm 7 mps 763 mmHg 77%
    13:00 +27°C° 0.4 mm 7 mps 763 mmHg 79%
    14:00 +27°C° 0.5 mm 7 mps 762 mmHg 81%
    15:00 +27°C° 0.5 mm 7 mps 762 mmHg 83%
    16:00 +26°C° 0.5 mm 7 mps 762 mmHg 84%
    17:00 +26°C° 0.3 mm 7 mps 762 mmHg 87%
    18:00 +24°C° 0.3 mm 7 mps 762 mmHg 89%
    19:00 +24°C° 0.3 mm 7 mps 762 mmHg 91%
    20:00 +24°C° 0.2 mm 6 mps 763 mmHg 91%
    21:00 +24°C° 0.2 mm 6 mps 763 mmHg 91%
    22:00 +24°C° 0.2 mm 6 mps 763 mmHg 91%
    23:00 +24°C° 0.2 mm 6 mps 763 mmHg 92%
    Show more